Hourly Weather Roundup
Issued by NWS Central Illinois

Home | Current Version | Previous Version | Text Only | Print | Product List | Glossary On
Versions: 1 2 3 4 5 6 7 8 9 10 11 12 13 14 15 16 17 18 19 20 21 22 23 24 25 26 27 28 29 30 31 32 33 34 35 36 37 38 39 40 41 42 43 44 45 46 47 48 49 50
359
NZUS43 KILX 100910
HWRILX

AREA WEATHER ROUNDUP
NATIONAL WEATHER SERVICE, LINCOLN IL
300 AM CST WED FEB 10 2016


CITY           SKY/WX    TMP DP  RH WIND       PRES   REMARKS
BLOOMINGTON    CLEAR     10   3  73 NW12      30.03S WCI  -5
CHAMPAIGN      CLEAR     11   4  73 W14       30.03S WCI  -5
DANVILLE       CLOUDY    11   5  75 W14       29.98S WCI  -4
DECATUR        CLEAR     11   4  73 NW12      30.06S WCI  -3
EFFINGHAM      PTCLDY    13   7  76 W12G22    30.11R WCI   0
FLORA          CLOUDY    17   8  69 NW16G24   30.12R WCI   1
GALESBURG      CLEAR      6   1  81 W7        30.09R WCI  -6
JACKSONVILLE   PTCLDY    14   5  69 W10       30.12F WCI   1
LACON          CLEAR     10   2  72 NW9G17    30.06R WCI  -3
LAWRENCEVILLE  MOCLDY    15   6  67 NW16      30.08R WCI  -1
LITCHFIELD     PTCLDY    12   5  71 NW13G23   30.11F WCI  -3
$$


CITY           SKY/WX    TMP DP  RH WIND       PRES   REMARKS
LINCOLN        CLEAR     12   5  73 W3        30.07F
MACOMB         CLEAR      9   4  79 W12       30.13S WCI  -6
MATTOON        MOCLDY    11   4  73 NW15      30.05R WCI  -5
MT CARMEL AP   PTCLDY    16   5  62 NW10      30.08R WCI   3
OLNEY-NOBLE AP CLOUDY    16   9  73 W18       30.10R WCI  -1
PARIS          CLOUDY    13   7  78 NW15G25   30.04R WCI  -3
PEORIA         CLEAR     11   1  64 NW7       30.07S WCI   0
PONTIAC        CLEAR     10   5  77 NW13      30.02F WCI  -5
RANTOUL        CLEAR     12   6  75 NW15      30.01F WCI  -4
ROBINSON       CLOUDY    13   7  76 NW10      30.08R WCI   0
SPRINGFIELD    PTCLDY    12   4  70 NW12      30.10F WCI  -2
TAYLORVILLE    CLEAR     12   5  73 W10       30.09F WCI  -1
$$

...REGIONAL REPORTS...


CITY           SKY/WX    TMP DP  RH WIND       PRES   REMARKS
CHICAGO O`HARE PTCLDY    12   2  64 NW14      29.95S WCI  -3
KANKAKEE       PTCLDY    13   4  67 W10       29.99S WCI   0
MOLINE         CLEAR      9   0  67 NW8       30.10R WCI  -3
MOUNT STERLING CLEAR     10   3  73 W10       30.12S WCI  -4
MOUNT VERNON   CLOUDY    16   3  57 NW5G16    30.13R WCI   9
PITTSFIELD     PTCLDY    13   5  69 W8        30.15S WCI   2
QUINCY         CLEAR     11   3  70 NW10      30.14S WCI  -3
ROCKFORD       CLOUDY     9   0  67 NW13      30.03R WCI  -7
$$


CITY           SKY/WX    TMP DP  RH WIND       PRES   REMARKS
BURLINGTON     CLEAR     10   2  69 NW8       30.12R WCI  -2
CEDAR RAPIDS   CLEAR      6   1  80 NW10      30.09F WCI  -9
DES MOINES     CLOUDY    17   7  64 N8        30.15F WCI   7
KIRKSVILLE     CLEAR     11   5  77 W5        30.16S WCI   3
OTTUMWA        CLEAR     11   5  77 NW9       30.14S WCI  -2
ST LOUIS       CLOUDY    18   5  57 NW15G22   30.15S WCI   4
$$


CITY           SKY/WX    TMP DP  RH WIND       PRES   REMARKS
TERRE HAUTE    CLOUDY    15   7  70 W14G22    30.03R WCI   0
EVANSVILLE     FLURRIES  18   9  68 NW8       30.10R WCI   8
INDIANAPOLIS   FLURRIES  14   7  73 W15       29.95R WCI  -1
LAFAYETTE      LGT SNOW  13   8  81 W13G21    29.97R WCI  -2
MADISON        CLOUDY    10   0  63 NW10      30.00R WCI  -4
MILWAUKEE      PTCLDY    11   0  61 NW10      29.94S WCI  -3
$$






USA.gov is the U.S. government's official web portal to all federal, state and local government web resources and services.